Вернуться в каталог

TEVEL2-4

АктивенЛюбительское радиоSSO
NORAD 63213·PAYLOAD·🇮🇱 Israel

Запущен Mar 15, 2025 с Vandenberg Space Force Base

Loading…

Ближайшие Пролёты (ближайшие 24 часа)

TLE

СвежийSource: AMSAT

Эпоха: Sep 14, 2026, 04:00 UTC

1 63213U 25052D   26257.16710487  .00014626  00000-0  39934-3 0  9995
2 63213  97.3762 153.8308 0004121 120.1634 240.0020 15.37512722 83772

Отслеживайте TEVEL2-4 в реальном времени с AllMySat

Download on the App Store